Index of /20260430/WXO-DD/model_gdps/15km/00/111
Name Last modified Size Description
Parent Directory -
20260430T00Z_MSC_GDPS_AbsoluteVorticity_IsbL-0200_LatLon0.15_PT111H.grib2 2026-04-30 04:29 1.2M
20260430T00Z_MSC_GDPS_AbsoluteVorticity_IsbL-0250_LatLon0.15_PT111H.grib2 2026-04-30 04:29 1.6M
20260430T00Z_MSC_GDPS_AbsoluteVorticity_IsbL-0500_LatLon0.15_PT111H.grib2 2026-04-30 04:29 1.2M
20260430T00Z_MSC_GDPS_AbsoluteVorticity_IsbL-0700_LatLon0.15_PT111H.grib2 2026-04-30 04:29 1.3M
20260430T00Z_MSC_GDPS_AbsoluteVorticity_IsbL-0850_LatLon0.15_PT111H.grib2 2026-04-30 04:29 1.6M
20260430T00Z_MSC_GDPS_AirTemp_AGL-120m_LatLon0.15_PT111H.grib2 2026-04-30 04:29 906K
20260430T00Z_MSC_GDPS_AirTemp_AGL-2m_LatLon0.15_PT111H.grib2 2026-04-30 04:29 1.0M
20260430T00Z_MSC_GDPS_AirTemp_AGL-40m_LatLon0.15_PT111H.grib2 2026-04-30 04:29 810K
20260430T00Z_MSC_GDPS_AirTemp_AGL-80m_LatLon0.15_PT111H.grib2 2026-04-30 04:29 915K
20260430T00Z_MSC_GDPS_AirTemp_IsbL-0001_LatLon0.15_PT111H.grib2 2026-04-30 04:29 646K
20260430T00Z_MSC_GDPS_AirTemp_IsbL-0005_LatLon0.15_PT111H.grib2 2026-04-30 04:29 686K
20260430T00Z_MSC_GDPS_AirTemp_IsbL-0010_LatLon0.15_PT111H.grib2 2026-04-30 04:29 697K
20260430T00Z_MSC_GDPS_AirTemp_IsbL-0020_LatLon0.15_PT111H.grib2 2026-04-30 04:29 790K
20260430T00Z_MSC_GDPS_AirTemp_IsbL-0030_LatLon0.15_PT111H.grib2 2026-04-30 04:29 838K
20260430T00Z_MSC_GDPS_AirTemp_IsbL-0050_LatLon0.15_PT111H.grib2 2026-04-30 04:29 813K
20260430T00Z_MSC_GDPS_AirTemp_IsbL-0100_LatLon0.15_PT111H.grib2 2026-04-30 04:29 1.0M
20260430T00Z_MSC_GDPS_AirTemp_IsbL-0150_LatLon0.15_PT111H.grib2 2026-04-30 04:29 969K
20260430T00Z_MSC_GDPS_AirTemp_IsbL-0175_LatLon0.15_PT111H.grib2 2026-04-30 04:29 958K
20260430T00Z_MSC_GDPS_AirTemp_IsbL-0200_LatLon0.15_PT111H.grib2 2026-04-30 04:29 1.0M
20260430T00Z_MSC_GDPS_AirTemp_IsbL-0225_LatLon0.15_PT111H.grib2 2026-04-30 04:29 1.0M
20260430T00Z_MSC_GDPS_AirTemp_IsbL-0250_LatLon0.15_PT111H.grib2 2026-04-30 04:29 1.0M
20260430T00Z_MSC_GDPS_AirTemp_IsbL-0275_LatLon0.15_PT111H.grib2 2026-04-30 04:29 1.0M
20260430T00Z_MSC_GDPS_AirTemp_IsbL-0300_LatLon0.15_PT111H.grib2 2026-04-30 04:29 947K
20260430T00Z_MSC_GDPS_AirTemp_IsbL-0350_LatLon0.15_PT111H.grib2 2026-04-30 04:29 928K
20260430T00Z_MSC_GDPS_AirTemp_IsbL-0400_LatLon0.15_PT111H.grib2 2026-04-30 04:29 942K
20260430T00Z_MSC_GDPS_AirTemp_IsbL-0450_LatLon0.15_PT111H.grib2 2026-04-30 04:29 966K
20260430T00Z_MSC_GDPS_AirTemp_IsbL-0500_LatLon0.15_PT111H.grib2 2026-04-30 04:29 768K
20260430T00Z_MSC_GDPS_AirTemp_IsbL-0550_LatLon0.15_PT111H.grib2 2026-04-30 04:29 806K
20260430T00Z_MSC_GDPS_AirTemp_IsbL-0600_LatLon0.15_PT111H.grib2 2026-04-30 04:29 896K
20260430T00Z_MSC_GDPS_AirTemp_IsbL-0650_LatLon0.15_PT111H.grib2 2026-04-30 04:29 919K
20260430T00Z_MSC_GDPS_AirTemp_IsbL-0700_LatLon0.15_PT111H.grib2 2026-04-30 04:29 954K
20260430T00Z_MSC_GDPS_AirTemp_IsbL-0750_LatLon0.15_PT111H.grib2 2026-04-30 04:29 1.0M
20260430T00Z_MSC_GDPS_AirTemp_IsbL-0800_LatLon0.15_PT111H.grib2 2026-04-30 04:29 1.1M
20260430T00Z_MSC_GDPS_AirTemp_IsbL-0850_LatLon0.15_PT111H.grib2 2026-04-30 04:29 1.1M
20260430T00Z_MSC_GDPS_AirTemp_IsbL-0875_LatLon0.15_PT111H.grib2 2026-04-30 04:29 1.2M
20260430T00Z_MSC_GDPS_AirTemp_IsbL-0900_LatLon0.15_PT111H.grib2 2026-04-30 04:29 1.1M
20260430T00Z_MSC_GDPS_AirTemp_IsbL-0925_LatLon0.15_PT111H.grib2 2026-04-30 04:29 1.1M
20260430T00Z_MSC_GDPS_AirTemp_IsbL-0950_LatLon0.15_PT111H.grib2 2026-04-30 04:29 1.1M
20260430T00Z_MSC_GDPS_AirTemp_IsbL-0970_LatLon0.15_PT111H.grib2 2026-04-30 04:29 1.1M
20260430T00Z_MSC_GDPS_AirTemp_IsbL-0985_LatLon0.15_PT111H.grib2 2026-04-30 04:29 1.1M
20260430T00Z_MSC_GDPS_AirTemp_IsbL-1000_LatLon0.15_PT111H.grib2 2026-04-30 04:29 1.1M
20260430T00Z_MSC_GDPS_AirTemp_IsbL-1015_LatLon0.15_PT111H.grib2 2026-04-30 04:29 1.1M
20260430T00Z_MSC_GDPS_Albedo_Sfc_LatLon0.15_PT111H.grib2 2026-04-30 04:29 242K
20260430T00Z_MSC_GDPS_CAPE_Sfc_LatLon0.15_PT111H.grib2 2026-04-30 04:29 3.8M
20260430T00Z_MSC_GDPS_CIN_Sfc_LatLon0.15_PT111H.grib2 2026-04-30 04:29 2.9M
20260430T00Z_MSC_GDPS_CloudWater_EAtm_LatLon0.15_PT111H.grib2 2026-04-30 04:29 536K
20260430T00Z_MSC_GDPS_ConvectivePrecip-Accum_Sfc_LatLon0.15_PT111H.grib2 2026-04-30 04:29 3.4M
20260430T00Z_MSC_GDPS_DewPointDepression_AGL-2m_LatLon0.15_PT111H.grib2 2026-04-30 04:29 765K
20260430T00Z_MSC_GDPS_DewPointDepression_IsbL-0010_LatLon0.15_PT111H.grib2 2026-04-30 04:29 72K
20260430T00Z_MSC_GDPS_DewPointDepression_IsbL-0020_LatLon0.15_PT111H.grib2 2026-04-30 04:29 76K
20260430T00Z_MSC_GDPS_DewPointDepression_IsbL-0030_LatLon0.15_PT111H.grib2 2026-04-30 04:29 88K
20260430T00Z_MSC_GDPS_DewPointDepression_IsbL-0050_LatLon0.15_PT111H.grib2 2026-04-30 04:29 385K
20260430T00Z_MSC_GDPS_DewPointDepression_IsbL-0100_LatLon0.15_PT111H.grib2 2026-04-30 04:29 402K
20260430T00Z_MSC_GDPS_DewPointDepression_IsbL-0150_LatLon0.15_PT111H.grib2 2026-04-30 04:29 468K
20260430T00Z_MSC_GDPS_DewPointDepression_IsbL-0175_LatLon0.15_PT111H.grib2 2026-04-30 04:29 577K
20260430T00Z_MSC_GDPS_DewPointDepression_IsbL-0200_LatLon0.15_PT111H.grib2 2026-04-30 04:29 679K
20260430T00Z_MSC_GDPS_DewPointDepression_IsbL-0225_LatLon0.15_PT111H.grib2 2026-04-30 04:29 774K
20260430T00Z_MSC_GDPS_DewPointDepression_IsbL-0250_LatLon0.15_PT111H.grib2 2026-04-30 04:29 861K
20260430T00Z_MSC_GDPS_DewPointDepression_IsbL-0275_LatLon0.15_PT111H.grib2 2026-04-30 04:29 879K
20260430T00Z_MSC_GDPS_DewPointDepression_IsbL-0300_LatLon0.15_PT111H.grib2 2026-04-30 04:29 921K
20260430T00Z_MSC_GDPS_DewPointDepression_IsbL-0350_LatLon0.15_PT111H.grib2 2026-04-30 04:29 952K
20260430T00Z_MSC_GDPS_DewPointDepression_IsbL-0400_LatLon0.15_PT111H.grib2 2026-04-30 04:29 1.0M
20260430T00Z_MSC_GDPS_DewPointDepression_IsbL-0450_LatLon0.15_PT111H.grib2 2026-04-30 04:29 1.0M
20260430T00Z_MSC_GDPS_DewPointDepression_IsbL-0500_LatLon0.15_PT111H.grib2 2026-04-30 04:29 1.0M
20260430T00Z_MSC_GDPS_DewPointDepression_IsbL-0550_LatLon0.15_PT111H.grib2 2026-04-30 04:29 1.0M
20260430T00Z_MSC_GDPS_DewPointDepression_IsbL-0600_LatLon0.15_PT111H.grib2 2026-04-30 04:29 1.0M
20260430T00Z_MSC_GDPS_DewPointDepression_IsbL-0650_LatLon0.15_PT111H.grib2 2026-04-30 04:29 1.1M
20260430T00Z_MSC_GDPS_DewPointDepression_IsbL-0700_LatLon0.15_PT111H.grib2 2026-04-30 04:29 1.1M
20260430T00Z_MSC_GDPS_DewPointDepression_IsbL-0750_LatLon0.15_PT111H.grib2 2026-04-30 04:29 1.1M
20260430T00Z_MSC_GDPS_DewPointDepression_IsbL-0800_LatLon0.15_PT111H.grib2 2026-04-30 04:29 1.2M
20260430T00Z_MSC_GDPS_DewPointDepression_IsbL-0850_LatLon0.15_PT111H.grib2 2026-04-30 04:29 1.2M
20260430T00Z_MSC_GDPS_DewPointDepression_IsbL-0875_LatLon0.15_PT111H.grib2 2026-04-30 04:29 1.1M
20260430T00Z_MSC_GDPS_DewPointDepression_IsbL-0900_LatLon0.15_PT111H.grib2 2026-04-30 04:29 1.1M
20260430T00Z_MSC_GDPS_DewPointDepression_IsbL-0925_LatLon0.15_PT111H.grib2 2026-04-30 04:29 1.0M
20260430T00Z_MSC_GDPS_DewPointDepression_IsbL-0950_LatLon0.15_PT111H.grib2 2026-04-30 04:29 1.0M
20260430T00Z_MSC_GDPS_DewPointDepression_IsbL-0970_LatLon0.15_PT111H.grib2 2026-04-30 04:29 1.0M
20260430T00Z_MSC_GDPS_DewPointDepression_IsbL-0985_LatLon0.15_PT111H.grib2 2026-04-30 04:29 1.0M
20260430T00Z_MSC_GDPS_DewPointDepression_IsbL-1000_LatLon0.15_PT111H.grib2 2026-04-30 04:29 1.0M
20260430T00Z_MSC_GDPS_DewPointDepression_IsbL-1015_LatLon0.15_PT111H.grib2 2026-04-30 04:29 920K
20260430T00Z_MSC_GDPS_DewPoint_AGL-2m_LatLon0.15_PT111H.grib2 2026-04-30 04:29 613K
20260430T00Z_MSC_GDPS_DownwardLongwaveRadiationFlux-Accum_Sfc_LatLon0.15_PT111H.grib2 2026-04-30 04:29 787K
20260430T00Z_MSC_GDPS_DownwardShortwaveRadiationFlux-Accum_NTAtm_LatLon0.15_PT111H.grib2 2026-04-30 04:29 296K
20260430T00Z_MSC_GDPS_DownwardShortwaveRadiationFlux-Accum_Sfc_LatLon0.15_PT111H.grib2 2026-04-30 04:29 1.0M
20260430T00Z_MSC_GDPS_FreezingRain-Accum1h_Sfc_LatLon0.15_PT111H.grib2 2026-04-30 04:29 49K
20260430T00Z_MSC_GDPS_FreezingRain-Accum3h_Sfc_LatLon0.15_PT111H.grib2 2026-04-30 04:29 52K
20260430T00Z_MSC_GDPS_FreezingRain-Accum_Sfc_LatLon0.15_PT111H.grib2 2026-04-30 04:29 384K
20260430T00Z_MSC_GDPS_GeopotentialHeight_IsbL-0001_LatLon0.15_PT111H.grib2 2026-04-30 04:29 407K
20260430T00Z_MSC_GDPS_GeopotentialHeight_IsbL-0005_LatLon0.15_PT111H.grib2 2026-04-30 04:29 484K
20260430T00Z_MSC_GDPS_GeopotentialHeight_IsbL-0010_LatLon0.15_PT111H.grib2 2026-04-30 04:29 476K
20260430T00Z_MSC_GDPS_GeopotentialHeight_IsbL-0020_LatLon0.15_PT111H.grib2 2026-04-30 04:29 411K
20260430T00Z_MSC_GDPS_GeopotentialHeight_IsbL-0030_LatLon0.15_PT111H.grib2 2026-04-30 04:29 568K
20260430T00Z_MSC_GDPS_GeopotentialHeight_IsbL-0050_LatLon0.15_PT111H.grib2 2026-04-30 04:29 571K
20260430T00Z_MSC_GDPS_GeopotentialHeight_IsbL-0100_LatLon0.15_PT111H.grib2 2026-04-30 04:29 611K
20260430T00Z_MSC_GDPS_GeopotentialHeight_IsbL-0150_LatLon0.15_PT111H.grib2 2026-04-30 04:29 630K
20260430T00Z_MSC_GDPS_GeopotentialHeight_IsbL-0175_LatLon0.15_PT111H.grib2 2026-04-30 04:29 633K
20260430T00Z_MSC_GDPS_GeopotentialHeight_IsbL-0200_LatLon0.15_PT111H.grib2 2026-04-30 04:29 637K
20260430T00Z_MSC_GDPS_GeopotentialHeight_IsbL-0225_LatLon0.15_PT111H.grib2 2026-04-30 04:29 641K
20260430T00Z_MSC_GDPS_GeopotentialHeight_IsbL-0250_LatLon0.15_PT111H.grib2 2026-04-30 04:29 644K
20260430T00Z_MSC_GDPS_GeopotentialHeight_IsbL-0275_LatLon0.15_PT111H.grib2 2026-04-30 04:29 644K
20260430T00Z_MSC_GDPS_GeopotentialHeight_IsbL-0300_LatLon0.15_PT111H.grib2 2026-04-30 04:29 641K
20260430T00Z_MSC_GDPS_GeopotentialHeight_IsbL-0350_LatLon0.15_PT111H.grib2 2026-04-30 04:29 632K
20260430T00Z_MSC_GDPS_GeopotentialHeight_IsbL-0400_LatLon0.15_PT111H.grib2 2026-04-30 04:29 621K
20260430T00Z_MSC_GDPS_GeopotentialHeight_IsbL-0450_LatLon0.15_PT111H.grib2 2026-04-30 04:29 613K
20260430T00Z_MSC_GDPS_GeopotentialHeight_IsbL-0500_LatLon0.15_PT111H.grib2 2026-04-30 04:29 605K
20260430T00Z_MSC_GDPS_GeopotentialHeight_IsbL-0550_LatLon0.15_PT111H.grib2 2026-04-30 04:29 528K
20260430T00Z_MSC_GDPS_GeopotentialHeight_IsbL-0600_LatLon0.15_PT111H.grib2 2026-04-30 04:29 525K
20260430T00Z_MSC_GDPS_GeopotentialHeight_IsbL-0650_LatLon0.15_PT111H.grib2 2026-04-30 04:29 693K
20260430T00Z_MSC_GDPS_GeopotentialHeight_IsbL-0700_LatLon0.15_PT111H.grib2 2026-04-30 04:29 692K
20260430T00Z_MSC_GDPS_GeopotentialHeight_IsbL-0750_LatLon0.15_PT111H.grib2 2026-04-30 04:29 695K
20260430T00Z_MSC_GDPS_GeopotentialHeight_IsbL-0800_LatLon0.15_PT111H.grib2 2026-04-30 04:29 706K
20260430T00Z_MSC_GDPS_GeopotentialHeight_IsbL-0850_LatLon0.15_PT111H.grib2 2026-04-30 04:29 715K
20260430T00Z_MSC_GDPS_GeopotentialHeight_IsbL-0875_LatLon0.15_PT111H.grib2 2026-04-30 04:29 715K
20260430T00Z_MSC_GDPS_GeopotentialHeight_IsbL-0900_LatLon0.15_PT111H.grib2 2026-04-30 04:29 722K
20260430T00Z_MSC_GDPS_GeopotentialHeight_IsbL-0925_LatLon0.15_PT111H.grib2 2026-04-30 04:29 729K
20260430T00Z_MSC_GDPS_GeopotentialHeight_IsbL-0950_LatLon0.15_PT111H.grib2 2026-04-30 04:29 738K
20260430T00Z_MSC_GDPS_GeopotentialHeight_IsbL-0970_LatLon0.15_PT111H.grib2 2026-04-30 04:29 748K
20260430T00Z_MSC_GDPS_GeopotentialHeight_IsbL-0985_LatLon0.15_PT111H.grib2 2026-04-30 04:29 763K
20260430T00Z_MSC_GDPS_GeopotentialHeight_IsbL-1000_LatLon0.15_PT111H.grib2 2026-04-30 04:29 785K
20260430T00Z_MSC_GDPS_GeopotentialHeight_IsbL-1015_LatLon0.15_PT111H.grib2 2026-04-30 04:29 804K
20260430T00Z_MSC_GDPS_Humidex_Sfc_LatLon0.15_PT111H.grib2 2026-04-30 04:29 5.3M
20260430T00Z_MSC_GDPS_IcePellets-Accum1h_Sfc_LatLon0.15_PT111H.grib2 2026-04-30 04:29 6.7K
20260430T00Z_MSC_GDPS_IcePellets-Accum3h_Sfc_LatLon0.15_PT111H.grib2 2026-04-30 04:29 10K
20260430T00Z_MSC_GDPS_IcePellets-Accum_Sfc_LatLon0.15_PT111H.grib2 2026-04-30 04:29 87K
20260430T00Z_MSC_GDPS_KIndex_Sfc_LatLon0.15_PT111H.grib2 2026-04-30 04:29 6.5M
20260430T00Z_MSC_GDPS_LatentHeatNetFlux_Sfc_LatLon0.15_PT111H.grib2 2026-04-30 04:29 715K
20260430T00Z_MSC_GDPS_LiftedIndex-MU-VT_IsbL-0500_LatLon0.15_PT111H.grib2 2026-04-30 04:29 5.4M
20260430T00Z_MSC_GDPS_NetLongwaveRadiationFlux-Accum_Sfc_LatLon0.15_PT111H.grib2 2026-04-30 04:29 1.0M
20260430T00Z_MSC_GDPS_NetShortwaveRadiationFlux-Accum_Sfc_LatLon0.15_PT111H.grib2 2026-04-30 04:29 1.0M
20260430T00Z_MSC_GDPS_O3MixingRatio_Sfc_LatLon0.15_PT111H.grib2 2026-04-30 04:51 1.9M
20260430T00Z_MSC_GDPS_O3_EAtm_LatLon0.15_PT111H.grib2 2026-04-30 04:51 2.4M
20260430T00Z_MSC_GDPS_PlanetaryBoundaryLayerHeight_Sfc_LatLon0.15_PT111H.grib2 2026-04-30 04:29 2.5M
20260430T00Z_MSC_GDPS_Precip-Accum1h_Sfc_LatLon0.15_PT111H.grib2 2026-04-30 04:29 3.3M
20260430T00Z_MSC_GDPS_Precip-Accum3h_Sfc_LatLon0.15_PT111H.grib2 2026-04-30 04:29 3.5M
20260430T00Z_MSC_GDPS_Precip-Accum_Sfc_LatLon0.15_PT111H.grib2 2026-04-30 04:29 5.1M
20260430T00Z_MSC_GDPS_PrecipRate_Sfc_LatLon0.15_PT111H.grib2 2026-04-30 04:29 3.0M
20260430T00Z_MSC_GDPS_PrecipType-Instant_Sfc_LatLon0.15_PT111H.grib2 2026-04-30 04:29 1.6M
20260430T00Z_MSC_GDPS_Pressure_MSL_LatLon0.15_PT111H.grib2 2026-04-30 04:29 822K
20260430T00Z_MSC_GDPS_Pressure_PVU-1.5_LatLon0.15_PT111H.grib2 2026-04-30 04:29 5.8M
20260430T00Z_MSC_GDPS_Pressure_PVU-1_LatLon0.15_PT111H.grib2 2026-04-30 04:29 6.0M
20260430T00Z_MSC_GDPS_Pressure_PVU-2_LatLon0.15_PT111H.grib2 2026-04-30 04:29 5.6M
20260430T00Z_MSC_GDPS_Pressure_Sfc_LatLon0.15_PT111H.grib2 2026-04-30 04:29 1.1M
20260430T00Z_MSC_GDPS_RadiativeTemp_Sfc_LatLon0.15_PT111H.grib2 2026-04-30 04:29 494K
20260430T00Z_MSC_GDPS_Rain-Accum1h_Sfc_LatLon0.15_PT111H.grib2 2026-04-30 04:29 1.7M
20260430T00Z_MSC_GDPS_Rain-Accum3h_Sfc_LatLon0.15_PT111H.grib2 2026-04-30 04:29 1.9M
20260430T00Z_MSC_GDPS_Rain-Accum_Sfc_LatLon0.15_PT111H.grib2 2026-04-30 04:29 3.9M
20260430T00Z_MSC_GDPS_RelativeHumidity_AGL-2m_LatLon0.15_PT111H.grib2 2026-04-30 04:29 1.1M
20260430T00Z_MSC_GDPS_RelativeHumidity_IsbL-0010_LatLon0.15_PT111H.grib2 2026-04-30 04:29 132K
20260430T00Z_MSC_GDPS_RelativeHumidity_IsbL-0020_LatLon0.15_PT111H.grib2 2026-04-30 04:29 166K
20260430T00Z_MSC_GDPS_RelativeHumidity_IsbL-0030_LatLon0.15_PT111H.grib2 2026-04-30 04:29 303K
20260430T00Z_MSC_GDPS_RelativeHumidity_IsbL-0050_LatLon0.15_PT111H.grib2 2026-04-30 04:29 339K
20260430T00Z_MSC_GDPS_RelativeHumidity_IsbL-0100_LatLon0.15_PT111H.grib2 2026-04-30 04:29 501K
20260430T00Z_MSC_GDPS_RelativeHumidity_IsbL-0150_LatLon0.15_PT111H.grib2 2026-04-30 04:29 662K
20260430T00Z_MSC_GDPS_RelativeHumidity_IsbL-0175_LatLon0.15_PT111H.grib2 2026-04-30 04:29 784K
20260430T00Z_MSC_GDPS_RelativeHumidity_IsbL-0200_LatLon0.15_PT111H.grib2 2026-04-30 04:29 708K
20260430T00Z_MSC_GDPS_RelativeHumidity_IsbL-0225_LatLon0.15_PT111H.grib2 2026-04-30 04:29 790K
20260430T00Z_MSC_GDPS_RelativeHumidity_IsbL-0250_LatLon0.15_PT111H.grib2 2026-04-30 04:29 863K
20260430T00Z_MSC_GDPS_RelativeHumidity_IsbL-0275_LatLon0.15_PT111H.grib2 2026-04-30 04:29 887K
20260430T00Z_MSC_GDPS_RelativeHumidity_IsbL-0300_LatLon0.15_PT111H.grib2 2026-04-30 04:29 930K
20260430T00Z_MSC_GDPS_RelativeHumidity_IsbL-0350_LatLon0.15_PT111H.grib2 2026-04-30 04:29 951K
20260430T00Z_MSC_GDPS_RelativeHumidity_IsbL-0400_LatLon0.15_PT111H.grib2 2026-04-30 04:29 973K
20260430T00Z_MSC_GDPS_RelativeHumidity_IsbL-0450_LatLon0.15_PT111H.grib2 2026-04-30 04:29 1.0M
20260430T00Z_MSC_GDPS_RelativeHumidity_IsbL-0500_LatLon0.15_PT111H.grib2 2026-04-30 04:29 1.0M
20260430T00Z_MSC_GDPS_RelativeHumidity_IsbL-0550_LatLon0.15_PT111H.grib2 2026-04-30 04:29 1.0M
20260430T00Z_MSC_GDPS_RelativeHumidity_IsbL-0600_LatLon0.15_PT111H.grib2 2026-04-30 04:29 1.0M
20260430T00Z_MSC_GDPS_RelativeHumidity_IsbL-0650_LatLon0.15_PT111H.grib2 2026-04-30 04:29 1.1M
20260430T00Z_MSC_GDPS_RelativeHumidity_IsbL-0700_LatLon0.15_PT111H.grib2 2026-04-30 04:29 1.1M
20260430T00Z_MSC_GDPS_RelativeHumidity_IsbL-0750_LatLon0.15_PT111H.grib2 2026-04-30 04:29 1.2M
20260430T00Z_MSC_GDPS_RelativeHumidity_IsbL-0800_LatLon0.15_PT111H.grib2 2026-04-30 04:29 1.2M
20260430T00Z_MSC_GDPS_RelativeHumidity_IsbL-0850_LatLon0.15_PT111H.grib2 2026-04-30 04:29 1.3M
20260430T00Z_MSC_GDPS_RelativeHumidity_IsbL-0875_LatLon0.15_PT111H.grib2 2026-04-30 04:29 1.3M
20260430T00Z_MSC_GDPS_RelativeHumidity_IsbL-0900_LatLon0.15_PT111H.grib2 2026-04-30 04:29 1.2M
20260430T00Z_MSC_GDPS_RelativeHumidity_IsbL-0925_LatLon0.15_PT111H.grib2 2026-04-30 04:29 1.2M
20260430T00Z_MSC_GDPS_RelativeHumidity_IsbL-0950_LatLon0.15_PT111H.grib2 2026-04-30 04:29 1.2M
20260430T00Z_MSC_GDPS_RelativeHumidity_IsbL-0970_LatLon0.15_PT111H.grib2 2026-04-30 04:29 1.2M
20260430T00Z_MSC_GDPS_RelativeHumidity_IsbL-0985_LatLon0.15_PT111H.grib2 2026-04-30 04:29 1.2M
20260430T00Z_MSC_GDPS_RelativeHumidity_IsbL-1000_LatLon0.15_PT111H.grib2 2026-04-30 04:29 1.2M
20260430T00Z_MSC_GDPS_RelativeHumidity_IsbL-1015_LatLon0.15_PT111H.grib2 2026-04-30 04:29 1.1M
20260430T00Z_MSC_GDPS_RelativeVorticity_IsbL-0200_LatLon0.15_PT111H.grib2 2026-04-30 04:29 1.2M
20260430T00Z_MSC_GDPS_RelativeVorticity_IsbL-0250_LatLon0.15_PT111H.grib2 2026-04-30 04:29 1.6M
20260430T00Z_MSC_GDPS_RelativeVorticity_IsbL-0500_LatLon0.15_PT111H.grib2 2026-04-30 04:29 1.2M
20260430T00Z_MSC_GDPS_RelativeVorticity_IsbL-0700_LatLon0.15_PT111H.grib2 2026-04-30 04:29 1.3M
20260430T00Z_MSC_GDPS_RelativeVorticity_IsbL-0850_LatLon0.15_PT111H.grib2 2026-04-30 04:29 1.6M
20260430T00Z_MSC_GDPS_Runoff-Accum_Sfc_LatLon0.15_PT111H.grib2 2026-04-30 04:29 137K
20260430T00Z_MSC_GDPS_SensibleHeatNetFlux_Sfc_LatLon0.15_PT111H.grib2 2026-04-30 04:29 649K
20260430T00Z_MSC_GDPS_ShowalterIndex_IsbL-0500_LatLon0.15_PT111H.grib2 2026-04-30 04:29 6.2M
20260430T00Z_MSC_GDPS_Snow-Accum1h_Sfc_LatLon0.15_PT111H.grib2 2026-04-30 04:29 1.1M
20260430T00Z_MSC_GDPS_Snow-Accum3h_Sfc_LatLon0.15_PT111H.grib2 2026-04-30 04:29 1.1M
20260430T00Z_MSC_GDPS_Snow-Accum_Sfc_LatLon0.15_PT111H.grib2 2026-04-30 04:29 2.1M
20260430T00Z_MSC_GDPS_SnowDensity_Sfc_LatLon0.15_PT111H.grib2 2026-04-30 04:29 265K
20260430T00Z_MSC_GDPS_SnowDepth_Sfc_LatLon0.15_PT111H.grib2 2026-04-30 04:29 1.7M
20260430T00Z_MSC_GDPS_SoilTemp_DBS-0to10cm_LatLon0.15_PT111H.grib2 2026-04-30 04:29 513K
20260430T00Z_MSC_GDPS_SoilTemp_Sfc_LatLon0.15_PT111H.grib2 2026-04-30 04:29 584K
20260430T00Z_MSC_GDPS_SoilVolumetricIceContent_Sfc_LatLon0.15_PT111H.grib2 2026-04-30 04:29 195K
20260430T00Z_MSC_GDPS_SoilVolumetricWaterContent_DBS-0to10cm_LatLon0.15_PT111H.grib2 2026-04-30 04:29 589K
20260430T00Z_MSC_GDPS_SoilVolumetricWaterContent_DBS-0to1cm_LatLon0.15_PT111H.grib2 2026-04-30 04:29 650K
20260430T00Z_MSC_GDPS_SpecificHumidity_AGL-120m_LatLon0.15_PT111H.grib2 2026-04-30 04:29 1.1M
20260430T00Z_MSC_GDPS_SpecificHumidity_AGL-2m_LatLon0.15_PT111H.grib2 2026-04-30 04:29 1.2M
20260430T00Z_MSC_GDPS_SpecificHumidity_AGL-40m_LatLon0.15_PT111H.grib2 2026-04-30 04:29 1.1M
20260430T00Z_MSC_GDPS_SpecificHumidity_AGL-80m_LatLon0.15_PT111H.grib2 2026-04-30 04:29 1.1M
20260430T00Z_MSC_GDPS_SpecificHumidity_IsbL-0001_LatLon0.15_PT111H.grib2 2026-04-30 04:29 1.2M
20260430T00Z_MSC_GDPS_SpecificHumidity_IsbL-0005_LatLon0.15_PT111H.grib2 2026-04-30 04:29 1.2M
20260430T00Z_MSC_GDPS_SpecificHumidity_IsbL-0010_LatLon0.15_PT111H.grib2 2026-04-30 04:29 1.3M
20260430T00Z_MSC_GDPS_SpecificHumidity_IsbL-0020_LatLon0.15_PT111H.grib2 2026-04-30 04:29 1.3M
20260430T00Z_MSC_GDPS_SpecificHumidity_IsbL-0030_LatLon0.15_PT111H.grib2 2026-04-30 04:29 1.6M
20260430T00Z_MSC_GDPS_SpecificHumidity_IsbL-0050_LatLon0.15_PT111H.grib2 2026-04-30 04:29 1.3M
20260430T00Z_MSC_GDPS_SpecificHumidity_IsbL-0100_LatLon0.15_PT111H.grib2 2026-04-30 04:29 1.3M
20260430T00Z_MSC_GDPS_SpecificHumidity_IsbL-0150_LatLon0.15_PT111H.grib2 2026-04-30 04:29 1.3M
20260430T00Z_MSC_GDPS_SpecificHumidity_IsbL-0175_LatLon0.15_PT111H.grib2 2026-04-30 04:29 1.3M
20260430T00Z_MSC_GDPS_SpecificHumidity_IsbL-0200_LatLon0.15_PT111H.grib2 2026-04-30 04:29 1.3M
20260430T00Z_MSC_GDPS_SpecificHumidity_IsbL-0225_LatLon0.15_PT111H.grib2 2026-04-30 04:29 1.3M
20260430T00Z_MSC_GDPS_SpecificHumidity_IsbL-0250_LatLon0.15_PT111H.grib2 2026-04-30 04:29 1.4M
20260430T00Z_MSC_GDPS_SpecificHumidity_IsbL-0275_LatLon0.15_PT111H.grib2 2026-04-30 04:29 1.3M
20260430T00Z_MSC_GDPS_SpecificHumidity_IsbL-0300_LatLon0.15_PT111H.grib2 2026-04-30 04:29 1.2M
20260430T00Z_MSC_GDPS_SpecificHumidity_IsbL-0350_LatLon0.15_PT111H.grib2 2026-04-30 04:29 1.2M
20260430T00Z_MSC_GDPS_SpecificHumidity_IsbL-0400_LatLon0.15_PT111H.grib2 2026-04-30 04:29 1.5M
20260430T00Z_MSC_GDPS_SpecificHumidity_IsbL-0450_LatLon0.15_PT111H.grib2 2026-04-30 04:29 1.6M
20260430T00Z_MSC_GDPS_SpecificHumidity_IsbL-0500_LatLon0.15_PT111H.grib2 2026-04-30 04:29 1.4M
20260430T00Z_MSC_GDPS_SpecificHumidity_IsbL-0550_LatLon0.15_PT111H.grib2 2026-04-30 04:29 1.6M
20260430T00Z_MSC_GDPS_SpecificHumidity_IsbL-0600_LatLon0.15_PT111H.grib2 2026-04-30 04:29 1.7M
20260430T00Z_MSC_GDPS_SpecificHumidity_IsbL-0650_LatLon0.15_PT111H.grib2 2026-04-30 04:29 1.5M
20260430T00Z_MSC_GDPS_SpecificHumidity_IsbL-0700_LatLon0.15_PT111H.grib2 2026-04-30 04:29 1.6M
20260430T00Z_MSC_GDPS_SpecificHumidity_IsbL-0750_LatLon0.15_PT111H.grib2 2026-04-30 04:29 1.7M
20260430T00Z_MSC_GDPS_SpecificHumidity_IsbL-0800_LatLon0.15_PT111H.grib2 2026-04-30 04:29 1.8M
20260430T00Z_MSC_GDPS_SpecificHumidity_IsbL-0850_LatLon0.15_PT111H.grib2 2026-04-30 04:29 1.9M
20260430T00Z_MSC_GDPS_SpecificHumidity_IsbL-0875_LatLon0.15_PT111H.grib2 2026-04-30 04:29 1.9M
20260430T00Z_MSC_GDPS_SpecificHumidity_IsbL-0900_LatLon0.15_PT111H.grib2 2026-04-30 04:29 1.6M
20260430T00Z_MSC_GDPS_SpecificHumidity_IsbL-0925_LatLon0.15_PT111H.grib2 2026-04-30 04:29 1.6M
20260430T00Z_MSC_GDPS_SpecificHumidity_IsbL-0950_LatLon0.15_PT111H.grib2 2026-04-30 04:29 1.6M
20260430T00Z_MSC_GDPS_SpecificHumidity_IsbL-0970_LatLon0.15_PT111H.grib2 2026-04-30 04:29 1.5M
20260430T00Z_MSC_GDPS_SpecificHumidity_IsbL-0985_LatLon0.15_PT111H.grib2 2026-04-30 04:29 1.5M
20260430T00Z_MSC_GDPS_SpecificHumidity_IsbL-1000_LatLon0.15_PT111H.grib2 2026-04-30 04:29 1.5M
20260430T00Z_MSC_GDPS_SpecificHumidity_IsbL-1015_LatLon0.15_PT111H.grib2 2026-04-30 04:29 1.5M
20260430T00Z_MSC_GDPS_SpecificHumidity_Sfc_LatLon0.15_PT111H.grib2 2026-04-30 04:29 679K
20260430T00Z_MSC_GDPS_Thickness_IsbL-0850to0700_LatLon0.15_PT111H.grib2 2026-04-30 04:29 469K
20260430T00Z_MSC_GDPS_Thickness_IsbL-1000to0500_LatLon0.15_PT111H.grib2 2026-04-30 04:29 375K
20260430T00Z_MSC_GDPS_Thickness_IsbL-1000to0850_LatLon0.15_PT111H.grib2 2026-04-30 04:29 492K
20260430T00Z_MSC_GDPS_TotalCloudCover_Sfc_LatLon0.15_PT111H.grib2 2026-04-30 04:29 824K
20260430T00Z_MSC_GDPS_TotalTotalsIndex_Sfc_LatLon0.15_PT111H.grib2 2026-04-30 04:29 6.2M
20260430T00Z_MSC_GDPS_UVIndex-ClearSky_Sfc_LatLon0.15_PT111H.grib2 2026-04-30 04:51 1.0M
20260430T00Z_MSC_GDPS_UVIndex_Sfc_LatLon0.15_PT111H.grib2 2026-04-30 04:51 1.5M
20260430T00Z_MSC_GDPS_UpwardLongwaveRadiationFlux_NTAtm_LatLon0.15_PT111H.grib2 2026-04-30 04:29 836K
20260430T00Z_MSC_GDPS_VerticalVelocity_IsbL-0200_LatLon0.15_PT111H.grib2 2026-04-30 04:29 1.2M
20260430T00Z_MSC_GDPS_VerticalVelocity_IsbL-0250_LatLon0.15_PT111H.grib2 2026-04-30 04:29 1.0M
20260430T00Z_MSC_GDPS_VerticalVelocity_IsbL-0500_LatLon0.15_PT111H.grib2 2026-04-30 04:29 1.0M
20260430T00Z_MSC_GDPS_VerticalVelocity_IsbL-0600_LatLon0.15_PT111H.grib2 2026-04-30 04:29 1.1M
20260430T00Z_MSC_GDPS_VerticalVelocity_IsbL-0700_LatLon0.15_PT111H.grib2 2026-04-30 04:29 1.4M
20260430T00Z_MSC_GDPS_VerticalVelocity_IsbL-0850_LatLon0.15_PT111H.grib2 2026-04-30 04:29 1.6M
20260430T00Z_MSC_GDPS_WindChill_Sfc_LatLon0.15_PT111H.grib2 2026-04-30 04:29 5.3M
20260430T00Z_MSC_GDPS_WindDir_AGL-10m_LatLon0.15_PT111H.grib2 2026-04-30 04:29 1.3M
20260430T00Z_MSC_GDPS_WindDir_AGL-120m_LatLon0.15_PT111H.grib2 2026-04-30 04:29 1.3M
20260430T00Z_MSC_GDPS_WindDir_AGL-40m_LatLon0.15_PT111H.grib2 2026-04-30 04:29 1.4M
20260430T00Z_MSC_GDPS_WindDir_AGL-80m_LatLon0.15_PT111H.grib2 2026-04-30 04:29 1.4M
20260430T00Z_MSC_GDPS_WindDir_IsbL-0001_LatLon0.15_PT111H.grib2 2026-04-30 04:29 680K
20260430T00Z_MSC_GDPS_WindDir_IsbL-0005_LatLon0.15_PT111H.grib2 2026-04-30 04:29 830K
20260430T00Z_MSC_GDPS_WindDir_IsbL-0010_LatLon0.15_PT111H.grib2 2026-04-30 04:29 833K
20260430T00Z_MSC_GDPS_WindDir_IsbL-0020_LatLon0.15_PT111H.grib2 2026-04-30 04:29 954K
20260430T00Z_MSC_GDPS_WindDir_IsbL-0030_LatLon0.15_PT111H.grib2 2026-04-30 04:29 939K
20260430T00Z_MSC_GDPS_WindDir_IsbL-0050_LatLon0.15_PT111H.grib2 2026-04-30 04:29 944K
20260430T00Z_MSC_GDPS_WindDir_IsbL-0100_LatLon0.15_PT111H.grib2 2026-04-30 04:29 1.0M
20260430T00Z_MSC_GDPS_WindDir_IsbL-0150_LatLon0.15_PT111H.grib2 2026-04-30 04:29 1.0M
20260430T00Z_MSC_GDPS_WindDir_IsbL-0175_LatLon0.15_PT111H.grib2 2026-04-30 04:29 1.0M
20260430T00Z_MSC_GDPS_WindDir_IsbL-0200_LatLon0.15_PT111H.grib2 2026-04-30 04:29 1.1M
20260430T00Z_MSC_GDPS_WindDir_IsbL-0225_LatLon0.15_PT111H.grib2 2026-04-30 04:29 1.1M
20260430T00Z_MSC_GDPS_WindDir_IsbL-0250_LatLon0.15_PT111H.grib2 2026-04-30 04:29 1.1M
20260430T00Z_MSC_GDPS_WindDir_IsbL-0275_LatLon0.15_PT111H.grib2 2026-04-30 04:29 1.2M
20260430T00Z_MSC_GDPS_WindDir_IsbL-0300_LatLon0.15_PT111H.grib2 2026-04-30 04:29 1.2M
20260430T00Z_MSC_GDPS_WindDir_IsbL-0350_LatLon0.15_PT111H.grib2 2026-04-30 04:29 1.2M
20260430T00Z_MSC_GDPS_WindDir_IsbL-0400_LatLon0.15_PT111H.grib2 2026-04-30 04:29 1.3M
20260430T00Z_MSC_GDPS_WindDir_IsbL-0450_LatLon0.15_PT111H.grib2 2026-04-30 04:29 1.3M
20260430T00Z_MSC_GDPS_WindDir_IsbL-0500_LatLon0.15_PT111H.grib2 2026-04-30 04:29 1.3M
20260430T00Z_MSC_GDPS_WindDir_IsbL-0550_LatLon0.15_PT111H.grib2 2026-04-30 04:29 1.4M
20260430T00Z_MSC_GDPS_WindDir_IsbL-0600_LatLon0.15_PT111H.grib2 2026-04-30 04:29 1.4M
20260430T00Z_MSC_GDPS_WindDir_IsbL-0650_LatLon0.15_PT111H.grib2 2026-04-30 04:29 1.5M
20260430T00Z_MSC_GDPS_WindDir_IsbL-0700_LatLon0.15_PT111H.grib2 2026-04-30 04:29 1.6M
20260430T00Z_MSC_GDPS_WindDir_IsbL-0750_LatLon0.15_PT111H.grib2 2026-04-30 04:29 1.7M
20260430T00Z_MSC_GDPS_WindDir_IsbL-0800_LatLon0.15_PT111H.grib2 2026-04-30 04:29 1.8M
20260430T00Z_MSC_GDPS_WindDir_IsbL-0850_LatLon0.15_PT111H.grib2 2026-04-30 04:29 1.9M
20260430T00Z_MSC_GDPS_WindDir_IsbL-0875_LatLon0.15_PT111H.grib2 2026-04-30 04:29 1.9M
20260430T00Z_MSC_GDPS_WindDir_IsbL-0900_LatLon0.15_PT111H.grib2 2026-04-30 04:29 2.0M
20260430T00Z_MSC_GDPS_WindDir_IsbL-0925_LatLon0.15_PT111H.grib2 2026-04-30 04:29 2.0M
20260430T00Z_MSC_GDPS_WindDir_IsbL-0950_LatLon0.15_PT111H.grib2 2026-04-30 04:29 2.0M
20260430T00Z_MSC_GDPS_WindDir_IsbL-0970_LatLon0.15_PT111H.grib2 2026-04-30 04:29 2.0M
20260430T00Z_MSC_GDPS_WindDir_IsbL-0985_LatLon0.15_PT111H.grib2 2026-04-30 04:29 2.0M
20260430T00Z_MSC_GDPS_WindDir_IsbL-1000_LatLon0.15_PT111H.grib2 2026-04-30 04:29 2.0M
20260430T00Z_MSC_GDPS_WindDir_IsbL-1015_LatLon0.15_PT111H.grib2 2026-04-30 04:29 2.0M
20260430T00Z_MSC_GDPS_WindGust-Max_AGL-10m_LatLon0.15_PT111H.grib2 2026-04-30 04:29 2.2M
20260430T00Z_MSC_GDPS_WindGust-Min_AGL-10m_LatLon0.15_PT111H.grib2 2026-04-30 04:29 2.2M
20260430T00Z_MSC_GDPS_WindGust_AGL-10m_LatLon0.15_PT111H.grib2 2026-04-30 04:29 2.2M
20260430T00Z_MSC_GDPS_WindSpeed_AGL-10m_LatLon0.15_PT111H.grib2 2026-04-30 04:29 1.3M
20260430T00Z_MSC_GDPS_WindSpeed_AGL-120m_LatLon0.15_PT111H.grib2 2026-04-30 04:29 1.2M
20260430T00Z_MSC_GDPS_WindSpeed_AGL-40m_LatLon0.15_PT111H.grib2 2026-04-30 04:29 1.2M
20260430T00Z_MSC_GDPS_WindSpeed_AGL-80m_LatLon0.15_PT111H.grib2 2026-04-30 04:29 1.2M
20260430T00Z_MSC_GDPS_WindSpeed_IsbL-0001_LatLon0.15_PT111H.grib2 2026-04-30 04:29 644K
20260430T00Z_MSC_GDPS_WindSpeed_IsbL-0005_LatLon0.15_PT111H.grib2 2026-04-30 04:29 612K
20260430T00Z_MSC_GDPS_WindSpeed_IsbL-0010_LatLon0.15_PT111H.grib2 2026-04-30 04:29 624K
20260430T00Z_MSC_GDPS_WindSpeed_IsbL-0020_LatLon0.15_PT111H.grib2 2026-04-30 04:29 666K
20260430T00Z_MSC_GDPS_WindSpeed_IsbL-0030_LatLon0.15_PT111H.grib2 2026-04-30 04:29 864K
20260430T00Z_MSC_GDPS_WindSpeed_IsbL-0050_LatLon0.15_PT111H.grib2 2026-04-30 04:29 909K
20260430T00Z_MSC_GDPS_WindSpeed_IsbL-0100_LatLon0.15_PT111H.grib2 2026-04-30 04:29 1.1M
20260430T00Z_MSC_GDPS_WindSpeed_IsbL-0150_LatLon0.15_PT111H.grib2 2026-04-30 04:29 946K
20260430T00Z_MSC_GDPS_WindSpeed_IsbL-0175_LatLon0.15_PT111H.grib2 2026-04-30 04:29 1.0M
20260430T00Z_MSC_GDPS_WindSpeed_IsbL-0200_LatLon0.15_PT111H.grib2 2026-04-30 04:29 1.1M
20260430T00Z_MSC_GDPS_WindSpeed_IsbL-0225_LatLon0.15_PT111H.grib2 2026-04-30 04:29 1.1M
20260430T00Z_MSC_GDPS_WindSpeed_IsbL-0250_LatLon0.15_PT111H.grib2 2026-04-30 04:29 1.1M
20260430T00Z_MSC_GDPS_WindSpeed_IsbL-0275_LatLon0.15_PT111H.grib2 2026-04-30 04:29 1.1M
20260430T00Z_MSC_GDPS_WindSpeed_IsbL-0300_LatLon0.15_PT111H.grib2 2026-04-30 04:29 1.1M
20260430T00Z_MSC_GDPS_WindSpeed_IsbL-0350_LatLon0.15_PT111H.grib2 2026-04-30 04:29 1.1M
20260430T00Z_MSC_GDPS_WindSpeed_IsbL-0400_LatLon0.15_PT111H.grib2 2026-04-30 04:29 1.1M
20260430T00Z_MSC_GDPS_WindSpeed_IsbL-0450_LatLon0.15_PT111H.grib2 2026-04-30 04:29 1.1M
20260430T00Z_MSC_GDPS_WindSpeed_IsbL-0500_LatLon0.15_PT111H.grib2 2026-04-30 04:29 1.1M
20260430T00Z_MSC_GDPS_WindSpeed_IsbL-0550_LatLon0.15_PT111H.grib2 2026-04-30 04:29 1.1M
20260430T00Z_MSC_GDPS_WindSpeed_IsbL-0600_LatLon0.15_PT111H.grib2 2026-04-30 04:29 1.1M
20260430T00Z_MSC_GDPS_WindSpeed_IsbL-0650_LatLon0.15_PT111H.grib2 2026-04-30 04:29 1.5M
20260430T00Z_MSC_GDPS_WindSpeed_IsbL-0700_LatLon0.15_PT111H.grib2 2026-04-30 04:29 1.5M
20260430T00Z_MSC_GDPS_WindSpeed_IsbL-0750_LatLon0.15_PT111H.grib2 2026-04-30 04:29 1.6M
20260430T00Z_MSC_GDPS_WindSpeed_IsbL-0800_LatLon0.15_PT111H.grib2 2026-04-30 04:29 1.7M
20260430T00Z_MSC_GDPS_WindSpeed_IsbL-0850_LatLon0.15_PT111H.grib2 2026-04-30 04:29 1.7M
20260430T00Z_MSC_GDPS_WindSpeed_IsbL-0875_LatLon0.15_PT111H.grib2 2026-04-30 04:29 1.8M
20260430T00Z_MSC_GDPS_WindSpeed_IsbL-0900_LatLon0.15_PT111H.grib2 2026-04-30 04:29 1.8M
20260430T00Z_MSC_GDPS_WindSpeed_IsbL-0925_LatLon0.15_PT111H.grib2 2026-04-30 04:29 1.9M
20260430T00Z_MSC_GDPS_WindSpeed_IsbL-0950_LatLon0.15_PT111H.grib2 2026-04-30 04:29 1.9M
20260430T00Z_MSC_GDPS_WindSpeed_IsbL-0970_LatLon0.15_PT111H.grib2 2026-04-30 04:29 1.9M
20260430T00Z_MSC_GDPS_WindSpeed_IsbL-0985_LatLon0.15_PT111H.grib2 2026-04-30 04:29 1.9M
20260430T00Z_MSC_GDPS_WindSpeed_IsbL-1000_LatLon0.15_PT111H.grib2 2026-04-30 04:29 1.8M
20260430T00Z_MSC_GDPS_WindSpeed_IsbL-1015_LatLon0.15_PT111H.grib2 2026-04-30 04:29 1.8M
20260430T00Z_MSC_GDPS_WindU_AGL-10m_LatLon0.15_PT111H.grib2 2026-04-30 04:29 1.6M
20260430T00Z_MSC_GDPS_WindU_AGL-120m_LatLon0.15_PT111H.grib2 2026-04-30 04:29 970K
20260430T00Z_MSC_GDPS_WindU_AGL-40m_LatLon0.15_PT111H.grib2 2026-04-30 04:29 1.2M
20260430T00Z_MSC_GDPS_WindU_AGL-80m_LatLon0.15_PT111H.grib2 2026-04-30 04:29 971K
20260430T00Z_MSC_GDPS_WindU_IsbL-0001_LatLon0.15_PT111H.grib2 2026-04-30 04:29 498K
20260430T00Z_MSC_GDPS_WindU_IsbL-0005_LatLon0.15_PT111H.grib2 2026-04-30 04:29 691K
20260430T00Z_MSC_GDPS_WindU_IsbL-0010_LatLon0.15_PT111H.grib2 2026-04-30 04:29 701K
20260430T00Z_MSC_GDPS_WindU_IsbL-0020_LatLon0.15_PT111H.grib2 2026-04-30 04:29 729K
20260430T00Z_MSC_GDPS_WindU_IsbL-0030_LatLon0.15_PT111H.grib2 2026-04-30 04:29 737K
20260430T00Z_MSC_GDPS_WindU_IsbL-0050_LatLon0.15_PT111H.grib2 2026-04-30 04:29 768K
20260430T00Z_MSC_GDPS_WindU_IsbL-0100_LatLon0.15_PT111H.grib2 2026-04-30 04:29 869K
20260430T00Z_MSC_GDPS_WindU_IsbL-0150_LatLon0.15_PT111H.grib2 2026-04-30 04:29 1.0M
20260430T00Z_MSC_GDPS_WindU_IsbL-0175_LatLon0.15_PT111H.grib2 2026-04-30 04:29 1.0M
20260430T00Z_MSC_GDPS_WindU_IsbL-0200_LatLon0.15_PT111H.grib2 2026-04-30 04:29 1.0M
20260430T00Z_MSC_GDPS_WindU_IsbL-0225_LatLon0.15_PT111H.grib2 2026-04-30 04:29 852K
20260430T00Z_MSC_GDPS_WindU_IsbL-0250_LatLon0.15_PT111H.grib2 2026-04-30 04:29 855K
20260430T00Z_MSC_GDPS_WindU_IsbL-0275_LatLon0.15_PT111H.grib2 2026-04-30 04:29 883K
20260430T00Z_MSC_GDPS_WindU_IsbL-0300_LatLon0.15_PT111H.grib2 2026-04-30 04:29 876K
20260430T00Z_MSC_GDPS_WindU_IsbL-0350_LatLon0.15_PT111H.grib2 2026-04-30 04:29 889K
20260430T00Z_MSC_GDPS_WindU_IsbL-0400_LatLon0.15_PT111H.grib2 2026-04-30 04:29 892K
20260430T00Z_MSC_GDPS_WindU_IsbL-0450_LatLon0.15_PT111H.grib2 2026-04-30 04:29 1.1M
20260430T00Z_MSC_GDPS_WindU_IsbL-0500_LatLon0.15_PT111H.grib2 2026-04-30 04:29 1.1M
20260430T00Z_MSC_GDPS_WindU_IsbL-0550_LatLon0.15_PT111H.grib2 2026-04-30 04:29 1.1M
20260430T00Z_MSC_GDPS_WindU_IsbL-0600_LatLon0.15_PT111H.grib2 2026-04-30 04:29 1.2M
20260430T00Z_MSC_GDPS_WindU_IsbL-0650_LatLon0.15_PT111H.grib2 2026-04-30 04:29 1.2M
20260430T00Z_MSC_GDPS_WindU_IsbL-0700_LatLon0.15_PT111H.grib2 2026-04-30 04:29 1.2M
20260430T00Z_MSC_GDPS_WindU_IsbL-0750_LatLon0.15_PT111H.grib2 2026-04-30 04:29 1.3M
20260430T00Z_MSC_GDPS_WindU_IsbL-0800_LatLon0.15_PT111H.grib2 2026-04-30 04:29 1.4M
20260430T00Z_MSC_GDPS_WindU_IsbL-0850_LatLon0.15_PT111H.grib2 2026-04-30 04:29 1.4M
20260430T00Z_MSC_GDPS_WindU_IsbL-0875_LatLon0.15_PT111H.grib2 2026-04-30 04:29 1.5M
20260430T00Z_MSC_GDPS_WindU_IsbL-0900_LatLon0.15_PT111H.grib2 2026-04-30 04:29 1.5M
20260430T00Z_MSC_GDPS_WindU_IsbL-0925_LatLon0.15_PT111H.grib2 2026-04-30 04:29 1.5M
20260430T00Z_MSC_GDPS_WindU_IsbL-0950_LatLon0.15_PT111H.grib2 2026-04-30 04:29 1.4M
20260430T00Z_MSC_GDPS_WindU_IsbL-0970_LatLon0.15_PT111H.grib2 2026-04-30 04:29 1.4M
20260430T00Z_MSC_GDPS_WindU_IsbL-0985_LatLon0.15_PT111H.grib2 2026-04-30 04:29 1.4M
20260430T00Z_MSC_GDPS_WindU_IsbL-1000_LatLon0.15_PT111H.grib2 2026-04-30 04:29 1.7M
20260430T00Z_MSC_GDPS_WindU_IsbL-1015_LatLon0.15_PT111H.grib2 2026-04-30 04:29 1.7M
20260430T00Z_MSC_GDPS_WindV_AGL-10m_LatLon0.15_PT111H.grib2 2026-04-30 04:29 1.6M
20260430T00Z_MSC_GDPS_WindV_AGL-120m_LatLon0.15_PT111H.grib2 2026-04-30 04:29 966K
20260430T00Z_MSC_GDPS_WindV_AGL-40m_LatLon0.15_PT111H.grib2 2026-04-30 04:29 960K
20260430T00Z_MSC_GDPS_WindV_AGL-80m_LatLon0.15_PT111H.grib2 2026-04-30 04:29 966K
20260430T00Z_MSC_GDPS_WindV_IsbL-0001_LatLon0.15_PT111H.grib2 2026-04-30 04:29 779K
20260430T00Z_MSC_GDPS_WindV_IsbL-0005_LatLon0.15_PT111H.grib2 2026-04-30 04:29 856K
20260430T00Z_MSC_GDPS_WindV_IsbL-0010_LatLon0.15_PT111H.grib2 2026-04-30 04:29 808K
20260430T00Z_MSC_GDPS_WindV_IsbL-0020_LatLon0.15_PT111H.grib2 2026-04-30 04:29 934K
20260430T00Z_MSC_GDPS_WindV_IsbL-0030_LatLon0.15_PT111H.grib2 2026-04-30 04:29 937K
20260430T00Z_MSC_GDPS_WindV_IsbL-0050_LatLon0.15_PT111H.grib2 2026-04-30 04:29 1.0M
20260430T00Z_MSC_GDPS_WindV_IsbL-0100_LatLon0.15_PT111H.grib2 2026-04-30 04:29 859K
20260430T00Z_MSC_GDPS_WindV_IsbL-0150_LatLon0.15_PT111H.grib2 2026-04-30 04:29 1.0M
20260430T00Z_MSC_GDPS_WindV_IsbL-0175_LatLon0.15_PT111H.grib2 2026-04-30 04:29 1.0M
20260430T00Z_MSC_GDPS_WindV_IsbL-0200_LatLon0.15_PT111H.grib2 2026-04-30 04:29 836K
20260430T00Z_MSC_GDPS_WindV_IsbL-0225_LatLon0.15_PT111H.grib2 2026-04-30 04:29 845K
20260430T00Z_MSC_GDPS_WindV_IsbL-0250_LatLon0.15_PT111H.grib2 2026-04-30 04:29 906K
20260430T00Z_MSC_GDPS_WindV_IsbL-0275_LatLon0.15_PT111H.grib2 2026-04-30 04:29 933K
20260430T00Z_MSC_GDPS_WindV_IsbL-0300_LatLon0.15_PT111H.grib2 2026-04-30 04:29 924K
20260430T00Z_MSC_GDPS_WindV_IsbL-0350_LatLon0.15_PT111H.grib2 2026-04-30 04:29 935K
20260430T00Z_MSC_GDPS_WindV_IsbL-0400_LatLon0.15_PT111H.grib2 2026-04-30 04:29 877K
20260430T00Z_MSC_GDPS_WindV_IsbL-0450_LatLon0.15_PT111H.grib2 2026-04-30 04:29 881K
20260430T00Z_MSC_GDPS_WindV_IsbL-0500_LatLon0.15_PT111H.grib2 2026-04-30 04:29 886K
20260430T00Z_MSC_GDPS_WindV_IsbL-0550_LatLon0.15_PT111H.grib2 2026-04-30 04:29 1.1M
20260430T00Z_MSC_GDPS_WindV_IsbL-0600_LatLon0.15_PT111H.grib2 2026-04-30 04:29 1.1M
20260430T00Z_MSC_GDPS_WindV_IsbL-0650_LatLon0.15_PT111H.grib2 2026-04-30 04:29 1.2M
20260430T00Z_MSC_GDPS_WindV_IsbL-0700_LatLon0.15_PT111H.grib2 2026-04-30 04:29 1.2M
20260430T00Z_MSC_GDPS_WindV_IsbL-0750_LatLon0.15_PT111H.grib2 2026-04-30 04:29 1.3M
20260430T00Z_MSC_GDPS_WindV_IsbL-0800_LatLon0.15_PT111H.grib2 2026-04-30 04:29 1.3M
20260430T00Z_MSC_GDPS_WindV_IsbL-0850_LatLon0.15_PT111H.grib2 2026-04-30 04:29 1.4M
20260430T00Z_MSC_GDPS_WindV_IsbL-0875_LatLon0.15_PT111H.grib2 2026-04-30 04:29 1.4M
20260430T00Z_MSC_GDPS_WindV_IsbL-0900_LatLon0.15_PT111H.grib2 2026-04-30 04:29 1.5M
20260430T00Z_MSC_GDPS_WindV_IsbL-0925_LatLon0.15_PT111H.grib2 2026-04-30 04:29 1.4M
20260430T00Z_MSC_GDPS_WindV_IsbL-0950_LatLon0.15_PT111H.grib2 2026-04-30 04:29 1.4M
20260430T00Z_MSC_GDPS_WindV_IsbL-0970_LatLon0.15_PT111H.grib2 2026-04-30 04:29 1.4M
20260430T00Z_MSC_GDPS_WindV_IsbL-0985_LatLon0.15_PT111H.grib2 2026-04-30 04:29 1.4M
20260430T00Z_MSC_GDPS_WindV_IsbL-1000_LatLon0.15_PT111H.grib2 2026-04-30 04:29 1.7M
20260430T00Z_MSC_GDPS_WindV_IsbL-1015_LatLon0.15_PT111H.grib2 2026-04-30 04:29 1.6M